Regional Weather Roundup
Issued by NWS

Home | Current Version | Previous Version | Text Only | Print | Product List | Glossary On
Versions: 1 2 3 4 5 6 7 8 9 10 11 12 13 14 15 16 17 18 19 20 21 22 23 24 25 26 27 28 29 30 31 32 33 34 35 36 37 38 39 40 41 42 43 44 45 46 47 48 49 50
000
ASUS43 KDTX 240701
RWRMI
MICHIGAN HOURLY REGIONAL WEATHER ROUNDUP
NATIONAL WEATHER SERVICE DETROIT/PONTIAC MI
300 AM EDT FRI OCT 24 2014

NOTE: "FAIR" INDICATES FEW OR NO CLOUDS BELOW 12,000 FEET WITH NO
SIGNIFICANT WEATHER AND/OR OBSTRUCTION TO VISIBILITY.

MIZ047>049-052>055-059>063-066>070-074>076-081>083-240800-
SOUTHEAST LOWER MICHIGAN

CITY           SKY/WX    TMP DP  RH WIND       PRES   REMARKS
ADRIAN         PTCLDY    36  35  96 CALM      30.10S
ALMA           CLOUDY    41  40  94 CALM      30.08R
ANN ARBOR      PTCLDY    33  31  92 CALM      30.09R
BAD AXE        CLOUDY    30  30 100 CALM      30.08S FOG
CARO           PTCLDY    31  30  96 CALM      30.08S
DETROIT CITY   PTCLDY    42  37  82 CALM      30.09F
DETROIT        CLOUDY    40  37  89 CALM      30.10S
FLINT          PTCLDY    37  33  85 CALM      30.09R
GROSSE ILE     PTCLDY    39  37  93 CALM      30.08S
HILLSDALE      PTCLDY    35  35 100 CALM      30.08S
HOWELL         CLEAR     38  35  92 CALM      30.08S

CITY           SKY/WX    TMP DP  RH WIND       PRES   REMARKS
JACKSON        PTCLDY    34  32  92 CALM      30.08S
LAMBERTVILLE   MOCLDY    37  36  93 CALM      30.11R FOG
LANSING        MOCLDY    42  36  79 CALM      30.08F
LAPEER         FAIR      30  30  98 CALM      30.08S
MASON          PTCLDY    35  33  93 S3        30.08S
MONROE         PTCLDY    36  36 100 CALM      30.08S FOG
MT. CLEMENS    PTCLDY    38  38  99 W2        30.06F
PONTIAC        PTCLDY    36  33  89 CALM      30.08S
PORT HOPE        N/A     40  37  89 SW8       30.05F WCI  34
PORT HURON     MOCLDY    30  30 100 CALM      30.09S FOG
TRI CITIES     MOCLDY    44  36  73 S5        30.08S
TROY           MOCLDY    41  37  83 CALM      30.10S
SAGINAW HB     MOCLDY    36  36 100 CALM      30.07S
$$
MIZ043>046-050>051-056>058-064>065-071>073-077>080-240800-
SOUTHWEST LOWER MICHIGAN

CITY           SKY/WX    TMP DP  RH WIND       PRES   REMARKS
BATTLE CREEK   PTCLDY    44  38  79 S3        30.08S
BENTON HARBOR  CLOUDY    50  43  77 S7        30.06F
BIG RAPIDS     CLOUDY    42  42 100 CALM      30.04S FOG
COLDWATER      PTCLDY    38  37  96 MISG      30.08S FOG
FREMONT        CLOUDY    48  44  84 CALM      30.05S
HOLLAND        CLOUDY    50  42  74 S6        30.06F
GRAND RAPIDS   CLOUDY    50  42  74 S6        30.06F
IONIA          PTSUNNY   45  41  86 S3        30.06S
LUDINGTON      CLOUDY    51  47  88 S5        30.03S
MARSHALL       PTCLDY    33  32  96 CALM      30.08S
MOUNT PLEASANT CLOUDY    43  41  93 CALM      30.06R
MUSKEGON       CLOUDY    51  45  79 E3        30.05F
SOUTH HAVEN    CLOUDY    53  44  72 S6        30.05F
$$
MIZ016>042-240800-
NORTHERN LOWER MICHIGAN

CITY           SKY/WX    TMP DP  RH WIND       PRES   REMARKS
ALPENA         MOCLDY    30  28  92 CALM      30.05S
BEAVER ISLAND  CLOUDY    52  48  86 SW6       30.01R
BELLAIRE       CLOUDY    46  42  88 CALM      30.02F
CADILLAC       CLOUDY    46  43  87 S6        30.02F
CHARLEVOIX     CLOUDY    47  42  84 SE3       30.05S
FRANKFORT      CLOUDY    53  45  74 CALM      30.01S
GAYLORD        CLOUDY    43  39  86 S3        30.03S
GRAYLING       CLOUDY    39  37  93 CALM      30.04S
HARBOR SPRINGS CLOUDY    44  40  86 CALM      30.03S
HOUGHTON LAKE  CLOUDY    38  37  97 CALM      30.05S
OSCODA         CLOUDY    33  32  97 CALM      30.05F
PELLSTON       CLOUDY    42  39  89 CALM      30.03F
ROGERS CITY    MOCLDY    39  37  93 S3        30.05F
TRAVERSE CITY  CLOUDY    49  41  74 CALM      30.01F
$$
MIZ007>008-015-240800-
EASTERN UPPER MICHIGAN

CITY           SKY/WX    TMP DP  RH WIND       PRES   REMARKS
KINROSS        CLOUDY    45  45 100 SE7       30.01F
MACKINAC ISLAN CLOUDY    46  43  87 S6        30.02S
NEWBERRY       CLOUDY    47  47  98 SW7       29.99S FOG
S. S. MARIE    CLOUDY    41  38  89 E5        30.02F
MUNISING         N/A     50  46  86 CALM      29.99R
$$
MIZ004>006-011>014-085-240800-
CENTRAL UPPER MICHIGAN

CITY           SKY/WX    TMP DP  RH WIND       PRES   REMARKS
MANISTIQUE     CLOUDY    49  48  97 SW5       30.00R FOG
ESCANABA       CLOUDY    46  45  93 SW5       30.00R
MENOMINEE      CLOUDY    48  45  87 CALM      30.00S
SAWYER-GWINN   CLOUDY    44  43  95 W6        29.98S FOG
$$
MIZ001>003-009>011-084-240800-
WESTERN UPPER MICHIGAN

CITY           SKY/WX    TMP DP  RH WIND       PRES   REMARKS
IRON MOUNTAIN  CLOUDY    46  44  93 W6        29.98S
HOUGHTON       CLOUDY    46  44  93 VRB3      29.96R
COPPER HARBOR    N/A     49  46  90 CALM      29.96S
IRONWOOD       CLOUDY    46  46 100 S7        29.95S
$$

ABBREVIATIONS USED IN REMARKS
   TC - TEMPERATURE IN CELSIUS
  WCI - WIND CHILL INDEX
   HX - HEAT INDEX
  VSB - VISIBILITY




USA.gov is the U.S. government's official web portal to all federal, state and local government web resources and services.